Weather History for KLVN - August, 2013

Change the Weather History Date:

Monday, August 26, 2013

  Actual Average Record
Temperature  
Mean Temperature 83 °F -  
Max Temperature 91 °F 80 °F 96 °F (1949)
Min Temperature 75 °F 57 °F 40 °F (1971)
Cooling Degree Days 18    
Growing Degree Days 33 (Base 50)    
Moisture  
Dew Point 73 °F    
Average Humidity 72    
Maximum Humidity 89    
Minimum Humidity 55    
Precipitation  
Precipitation 0.00 in - - ()
Sea Level Pressure  
Sea Level Pressure 29.95 in    
Wind  
Wind Speed 6 mph (SSW)    
Max Wind Speed 13 mph    
Max Gust Speed 17 mph    
Visibility 10 miles    
Events      
Averages and records for this station are not official NWS values.
T = Trace of Precipitation, MM = Missing Value Source: NWS Daily Summary

Daily Weather History Graph

Daily Weather History Graph

Search for Another Location

Airport or City:

Trip Planner

Search our weather history database for the weather conditions in past years. The results will help you decide how hot, cold, wet, or windy it might be!

Date:

Astronomy

Aug. 26, 2013 Rise Set
Actual Time 6:28 AM CDT 7:59 PM CDT
Civil Twilight 5:58 AM CDT 8:30 PM CDT
Nautical Twilight 5:21 AM CDT 9:07 PM CDT
Astronomical Twilight 4:41 AM CDT 9:46 PM CDT
Moon 10:53 PM CDT (8/26) 12:47 PM CDT (8/26)
Length of Visible Light 14h 32m
Length of Day
13h 31m
Waning Gibbous, 66% of the Moon is Illuminated
Aug 26
Waning Gibbous
Aug 28
Last Quarter
Sep 5
New
Sep 12
First Quarter
Sep 19
Full

Hourly Weather History & Observations

Time (CDT) Temp. Heat Index Dew Point Humidity Pressure Visibility Wind Dir Wind Speed Gust Speed Precip Events Conditions
12:14 AM 80.6 °F 84.6 °F 71.6 °F 74% 29.98 in 10.0 mi WSW 6.9 mph - N/A   Clear
12:33 AM 80.6 °F 84.6 °F 71.6 °F 74% 29.99 in 10.0 mi WSW 8.1 mph - N/A   Clear
12:54 AM 80.6 °F 84.6 °F 71.6 °F 74% 29.99 in 10.0 mi WSW 9.2 mph - N/A   Clear
1:13 AM 80.6 °F 84.6 °F 71.6 °F 74% 29.99 in 10.0 mi WSW 5.8 mph - N/A   Clear
1:33 AM 78.8 °F - 71.6 °F 78% 29.99 in 10.0 mi WSW 8.1 mph - N/A   Clear
1:54 AM 78.8 °F - 71.6 °F 78% 29.99 in 10.0 mi WSW 5.8 mph - N/A   Clear
2:13 AM 78.8 °F - 71.6 °F 78% 29.99 in 10.0 mi WSW 4.6 mph - N/A   Clear
2:34 AM 78.8 °F - 71.6 °F 78% 29.99 in 10.0 mi WSW 5.8 mph - N/A   Clear
2:54 AM 78.8 °F - 71.6 °F 78% 29.99 in 10.0 mi WSW 4.6 mph - N/A   Clear
3:13 AM 78.8 °F - 71.6 °F 78% 29.98 in 10.0 mi SW 5.8 mph - N/A   Clear
3:34 AM 78.8 °F - 71.6 °F 78% 29.99 in 10.0 mi SW 5.8 mph - N/A   Clear
3:54 AM 77.0 °F - 71.6 °F 83% 29.98 in 10.0 mi SW 6.9 mph - N/A   Clear
4:13 AM 77.0 °F - 71.6 °F 83% 29.98 in 10.0 mi SW 5.8 mph - N/A   Clear
4:34 AM 77.0 °F - 71.6 °F 83% 29.97 in 10.0 mi WSW 5.8 mph - N/A   Clear
4:54 AM 77.0 °F - 71.6 °F 83% 29.97 in 10.0 mi WSW 5.8 mph - N/A   Clear
5:13 AM 77.0 °F - 71.6 °F 83% 29.97 in 10.0 mi WSW 3.5 mph - N/A   Clear
5:34 AM 77.0 °F - 71.6 °F 83% 29.97 in 10.0 mi SSW 6.9 mph - N/A   Clear
5:53 AM 75.2 °F - 71.6 °F 89% 29.98 in 10.0 mi SW 4.6 mph - N/A   Clear
6:13 AM 77.0 °F - 71.6 °F 83% 29.98 in 10.0 mi WSW 4.6 mph - N/A   Mostly Cloudy
6:34 AM 77.0 °F - 71.6 °F 83% 30.00 in 10.0 mi WSW 4.6 mph - N/A   Overcast
6:53 AM 77.0 °F - 71.6 °F 83% 30.00 in 10.0 mi WSW 3.5 mph - N/A   Mostly Cloudy
7:14 AM 75.2 °F - 71.6 °F 89% 30.01 in 10.0 mi Calm Calm - N/A   Scattered Clouds
7:34 AM 77.0 °F - 71.6 °F 83% 30.01 in 10.0 mi Calm Calm - N/A   Scattered Clouds
7:53 AM 77.0 °F - 71.6 °F 83% 30.01 in 10.0 mi Calm Calm - N/A   Clear
8:14 AM 78.8 °F - 71.6 °F 78% 30.01 in 10.0 mi South 3.5 mph - N/A   Clear
8:34 AM 78.8 °F - 71.6 °F 78% 30.02 in 10.0 mi SSW 4.6 mph - N/A   Clear
8:53 AM 80.6 °F 84.6 °F 71.6 °F 74% 30.01 in 10.0 mi SSW 5.8 mph - N/A   Clear
9:14 AM 80.6 °F 84.6 °F 71.6 °F 74% 30.00 in 10.0 mi SSW 5.8 mph - N/A   Clear
9:33 AM 82.4 °F 87.2 °F 71.6 °F 70% 30.00 in 10.0 mi SW 4.6 mph - N/A   Clear
9:53 AM 82.4 °F 87.2 °F 71.6 °F 70% 30.00 in 10.0 mi SW 6.9 mph - N/A   Clear
10:14 AM 82.4 °F 87.2 °F 71.6 °F 70% 30.00 in 10.0 mi WSW 5.8 mph - N/A   Clear
10:33 AM 84.2 °F 89.6 °F 71.6 °F 66% 29.99 in 10.0 mi SW 3.5 mph - N/A   Clear
10:53 AM 84.2 °F 89.6 °F 71.6 °F 66% 30.00 in 10.0 mi SSW 9.2 mph - N/A   Clear
11:14 AM 84.2 °F 89.6 °F 71.6 °F 66% 29.99 in 10.0 mi WSW 5.8 mph - N/A   Clear
11:33 AM 84.2 °F 89.6 °F 71.6 °F 66% 29.99 in 10.0 mi SSW 4.6 mph - N/A   Clear
11:54 AM 86.0 °F 91.8 °F 71.6 °F 62% 29.99 in 10.0 mi SW 4.6 mph - N/A   Clear
12:13 PM 87.8 °F 93.8 °F 71.6 °F 58% 29.98 in 10.0 mi SW 6.9 mph - N/A   Clear
12:33 PM 87.8 °F 93.8 °F 71.6 °F 58% 29.98 in 10.0 mi SW 3.5 mph - N/A   Clear
12:54 PM 89.6 °F 98.2 °F 73.4 °F 59% 29.97 in 10.0 mi South 8.1 mph - N/A   Clear
1:13 PM 87.8 °F 95.6 °F 73.4 °F 62% 29.97 in 10.0 mi South 6.9 mph - N/A   Clear
1:33 PM 87.8 °F 93.8 °F 71.6 °F 58% 29.97 in 10.0 mi South 8.1 mph - N/A   Clear
1:54 PM 89.6 °F 96.2 °F 71.6 °F 55% 29.96 in 10.0 mi SSW 8.1 mph - N/A   Clear
2:13 PM 89.6 °F 98.2 °F 73.4 °F 59% 29.95 in 10.0 mi SSW 9.2 mph - N/A   Clear
2:34 PM 89.6 °F 98.2 °F 73.4 °F 59% 29.94 in 10.0 mi South 8.1 mph 16.1 mph N/A   Clear
2:54 PM 89.6 °F 98.2 °F 73.4 °F 59% 29.93 in 10.0 mi SSW 10.4 mph - N/A   Clear
3:13 PM 89.6 °F 98.2 °F 73.4 °F 59% 29.93 in 10.0 mi SSW 12.7 mph - N/A   Clear
3:34 PM 89.6 °F 98.2 °F 73.4 °F 59% 29.92 in 10.0 mi South 11.5 mph 17.3 mph N/A   Clear
3:54 PM 91.4 °F 100.1 °F 73.4 °F 55% 29.91 in 10.0 mi South 10.4 mph 17.3 mph N/A   Clear
4:13 PM 89.6 °F 98.2 °F 73.4 °F 59% 29.91 in 7.0 mi SSW 12.7 mph - N/A   Clear
4:34 PM 91.4 °F 102.5 °F 75.2 °F 59% 29.91 in 7.0 mi South 10.4 mph - N/A   Clear
4:54 PM 91.4 °F 102.5 °F 75.2 °F 59% 29.91 in 10.0 mi South 8.1 mph - N/A   Clear
5:13 PM 89.6 °F 99.8 °F 75.2 °F 62% 29.91 in 10.0 mi South 9.2 mph 16.1 mph N/A   Clear
5:34 PM 89.6 °F 99.8 °F 75.2 °F 62% 29.90 in 10.0 mi South 11.5 mph 17.3 mph N/A   Clear
5:53 PM 89.6 °F 99.8 °F 75.2 °F 62% 29.89 in 10.0 mi South 10.4 mph - N/A   Clear
6:13 PM 89.6 °F 99.8 °F 75.2 °F 62% 29.88 in 10.0 mi South 12.7 mph 17.3 mph N/A   Clear
6:34 PM 87.8 °F 95.6 °F 73.4 °F 62% 29.88 in 10.0 mi South 8.1 mph - N/A   Clear
6:53 PM 87.8 °F 97.6 °F 75.2 °F 66% 29.87 in 10.0 mi South 9.2 mph - N/A   Clear
7:13 PM 86.0 °F 93.4 °F 73.4 °F 66% 29.88 in 10.0 mi South 8.1 mph - N/A   Clear
7:34 PM 84.2 °F 90.9 °F 73.4 °F 70% 29.87 in 10.0 mi South 8.1 mph - N/A   Clear
7:53 PM 84.2 °F 90.9 °F 73.4 °F 70% 29.87 in 10.0 mi South 5.8 mph - N/A   Clear
8:14 PM 82.4 °F 88.2 °F 73.4 °F 74% 29.87 in 10.0 mi South 4.6 mph - N/A   Clear
8:34 PM 82.4 °F 88.2 °F 73.4 °F 74% 29.87 in 10.0 mi South 4.6 mph - N/A   Clear
8:53 PM 80.6 °F 85.4 °F 73.4 °F 79% 29.88 in 10.0 mi South 4.6 mph - N/A   Clear
9:14 PM 80.6 °F 85.4 °F 73.4 °F 79% 29.88 in 10.0 mi South 4.6 mph - N/A   Clear
9:34 PM 80.6 °F 85.4 °F 73.4 °F 79% 29.88 in 10.0 mi South 4.6 mph - N/A   Clear
9:53 PM 80.6 °F 85.4 °F 73.4 °F 79% 29.88 in 10.0 mi South 5.8 mph - N/A   Clear
10:14 PM 80.6 °F 85.4 °F 73.4 °F 79% 29.88 in 10.0 mi South 4.6 mph - N/A   Clear
10:34 PM 80.6 °F 85.4 °F 73.4 °F 79% 29.88 in 10.0 mi South 3.5 mph - N/A   Clear
10:53 PM 80.6 °F 85.4 °F 73.4 °F 79% 29.87 in 10.0 mi South 4.6 mph - N/A   Clear
11:14 PM 80.6 °F 84.6 °F 71.6 °F 74% 29.87 in 10.0 mi South 3.5 mph - N/A   Clear
11:34 PM 80.6 °F 84.6 °F 71.6 °F 74% 29.86 in 10.0 mi SSW 6.9 mph - N/A   Clear
11:53 PM 80.6 °F 84.6 °F 71.6 °F 74% 29.87 in 10.0 mi South 3.5 mph - N/A   Clear